Terminal Aerodrome Forecast
Issued by NWS Huntsville, AL

Home | Current Version | Previous Version | Text Only | Print | Product List | Glossary On
Versions: 1 2 3 4 5 6 7 8 9 10 11 12 13 14 15 16 17 18 19 20 21 22 23 24 25 26 27 28 29 30 31 32 33 34 35 36 37 38 39 40 41 42 43 44 45
000
FTUS44 KHUN 061734
TAFHSV
TAF
KHSV 061734Z 0618/0718 23006KT P6SM SCT025 BKN050
     FM061900 26007KT P6SM SCT035 SCT250
     FM070100 20005KT P6SM SCT030
     FM070600 20003KT P6SM FEW015 SCT030 BKN090
     FM071400 23010KT P6SM SCT030 SCT150=

USA.gov is the U.S. government's official web portal to all federal, state and local government web resources and services.